Home   Weather   Rohrbach   Past weeks

Flag for Austria Past Weather in Rohrbach, Upper Austria, Austria — Yesterday and Last 2 Weeks

Now
66 °F

Mild.


Feels Like: 66 °F
Forecast: 44 / 64 °F
Wind: 1 mph from Southwest

Location: Rohrbach

Current Time: Sep 26, 2016 at 5:45:08 PM

Latest Report: Sep 26, 2016 at 4:00 PM


Visibility: N/A

Pressure: 30.11 "Hg (28.06 "Hg at 605m altitude)

Humidity: 56%

Dew Point: 49 °F

Location of RohrbachLocation

Past Weather in Rohrbach — Graph

°F

Rohrbach Temperature Yesterday

Maximum temperature yesterday: 68 °F (at 3:00 PM)
Minimum temperature yesterday: 46 °F (at 7:00 AM)
Average temperature yesterday: 56 °F

High & Low Weather Summary for the Past Weeks

 TemperatureHumidityPressure
High83 °F (Sep 12, 3:00 PM)100% (Sep 19, 4:00 AM)30.39 "Hg (Sep 19, 4:00 AM)
Low42 °F (Sep 23, 7:00 AM)37% (Sep 13, 4:00 PM)29.78 "Hg (Sep 17, 2:00 AM)
Average59 °F76%30.04 "Hg
* Reported Sep 11 4:00 PM — Sep 26 4:00 PM, Rohrbach, Weather by CustomWeather, © 2016

Note: Actual official high and low records may vary slightly from our data, if they occured in-between our weather recording intervals... More about our weather records

Advertising

Rohrbach Weather History for the Previous 24 Hours

Scroll right to see more
 ConditionsComfort  
Time TempWeatherWind HumidityBarometerVisibility
4:00 PM
Mon, Sep 26
66 °FMild.1 mph56%30.11 "HgN/A
3:00 PM66 °FMild.2 mph57%30.12 "HgN/A
2:00 PM66 °FMild.2 mph59%30.13 "HgN/A
12:00 PM64 °FMild.No wind67%30.14 "HgN/A
11:00 AM60 °FCool.1 mph76%30.16 "HgN/A
10:00 AM53 °FCool.1 mph88%30.20 "HgN/A
9:00 AM47 °FCool.No wind95%30.22 "HgN/A
8:00 AM46 °FCool.1 mph96%30.21 "HgN/A
7:00 AM46 °FCool.1 mph96%30.21 "HgN/A
6:00 AM46 °FCool.No wind97%30.20 "HgN/A
5:00 AM46 °FCool.No wind97%30.19 "HgN/A
4:00 AM47 °FCool.No wind95%30.18 "HgN/A
3:00 AM48 °FCool.No wind96%30.19 "HgN/A
2:00 AMN/APassing clouds.10 mphN/AN/A3 mi
1:00 AM49 °FCool.No wind94%30.19 "HgN/A
12:00 AM51 °FCool.No wind92%30.19 "HgN/A
11:00 PM
Sun, Sep 25
51 °FCool.No wind92%30.18 "HgN/A
10:00 PM53 °FCool.1 mph89%30.17 "HgN/A
9:00 PM55 °FCool.No wind85%30.15 "HgN/A
8:00 PM57 °FCool.No wind79%30.14 "HgN/A
7:00 PM61 °FCool.No wind71%30.10 "HgN/A
6:00 PM64 °FMild.2 mph61%30.08 "HgN/A
5:00 PM66 °FMild.2 mph60%30.07 "HgN/A
Weather by CustomWeather, © 2016

See weather overviewHow to use our weather pages